Dallas Love, TX

12:04 AM CDT on September 22, 2017 (GMT -0500)
Dallas Love

Weather History for KDAL - February, 2013

Change the Weather History Date:

Thursday, February 21, 2013

  Actual Average Record
Temperature  
Mean Temperature 57 °F -  
Max Temperature 69 °F 59 °F 82 °F (2005)
Min Temperature 45 °F 41 °F 35 °F (2012)
Degree Days  
Heating Degree Days 8    
Growing Degree Days 7 (Base 50)    
Moisture  
Dew Point 39 °F    
Average Humidity 67    
Maximum Humidity 93    
Minimum Humidity 16    
Precipitation  
Precipitation 0.01 in - - ()
Sea Level Pressure  
Sea Level Pressure 29.73 in    
Wind  
Wind Speed 13 mph (North)    
Max Wind Speed 22 mph    
Max Gust Speed 30 mph    
Visibility 9 miles    
Events Rain , Thunderstorm    
Averages and records for this station are not official NWS values.
T = Trace of Precipitation, MM = Missing Value Source: NWS Daily Summary

Daily Weather History Graph

Daily Weather History Graph

Search for Another Location

Airport or City:

Trip Planner

Search our weather history database for the weather conditions in past years. The results will help you decide how hot, cold, wet, or windy it might be!

Date:

Astronomy

Feb. 21, 2013 Rise Set
Actual Time 7:04 AM CST 6:18 PM CST
Civil Twilight 6:39 AM CST 6:43 PM CST
Nautical Twilight 6:10 AM CST 7:12 PM CST
Astronomical Twilight 5:41 AM CST 7:40 PM CST
Moon 2:42 PM CST (2/21) 4:01 AM CST (2/21)
Length of Visible Light 12h 04m
Length of Day
11h 14m
Waxing Gibbous, 84% of the Moon is Illuminated
Feb 21
Waxing Gibbous
Feb 25
Full
Mar 4
Last Quarter
Mar 11
New
Mar 19
First Quarter

Hourly Weather History & Observations

Time (CST) Temp. Windchill Dew Point Humidity Pressure Visibility Wind Dir Wind Speed Gust Speed Precip Events Conditions
12:53 AM 45.0 °F 37.9 °F 33.1 °F 63% 29.76 in 10.0 mi East 16.1 mph 24.2 mph N/A   Overcast
1:53 AM 45.0 °F 38.5 °F 35.1 °F 68% 29.75 in 10.0 mi East 13.8 mph - 0.00 in Rain Light Rain
2:53 AM 45.0 °F 40.6 °F 36.0 °F 71% 29.75 in 10.0 mi East 8.1 mph - 0.01 in   Overcast
3:53 AM 45.0 °F 37.6 °F 37.9 °F 76% 29.70 in 10.0 mi ESE 17.3 mph 21.9 mph 0.00 in Rain Light Rain
4:53 AM 46.0 °F 39.6 °F 37.9 °F 73% 29.68 in 10.0 mi ESE 15.0 mph - 0.00 in Rain Light Rain
5:42 AM 46.4 °F 38.5 °F 39.2 °F 76% 29.63 in 10.0 mi ESE 21.9 mph 29.9 mph 0.00 in Rain Light Rain
5:53 AM 46.0 °F 38.5 °F 39.0 °F 76% 29.64 in 10.0 mi ESE 19.6 mph 29.9 mph 0.00 in   Overcast
6:47 AM 46.4 °F 38.5 °F 41.0 °F 81% 29.63 in 10.0 mi ESE 21.9 mph 29.9 mph N/A   Overcast
6:53 AM 46.9 °F - 41.0 °F 80% 29.63 in 10.0 mi SE 19.6 mph 29.9 mph N/A   Overcast
7:35 AM 46.4 °F 40.1 °F 42.8 °F 87% 29.61 in 8.0 mi SE 15.0 mph 24.2 mph N/A   Overcast
7:53 AM 48.0 °F - 43.0 °F 83% 29.63 in 8.0 mi SE 16.1 mph - N/A   Overcast
8:10 AM 48.2 °F - 44.6 °F 87% 29.73 in 8.0 mi WNW 19.6 mph 26.5 mph N/A   Overcast
8:22 AM 48.2 °F - 44.6 °F 87% 29.73 in 2.5 mi NW 11.5 mph 26.5 mph 0.00 in Rain Light Rain
8:34 AM 48.2 °F - 44.6 °F 87% 29.75 in 2.0 mi NW 15.0 mph 25.3 mph 0.02 in Rain , Thunderstorm Thunderstorms and Rain
8:40 AM 48.2 °F - 44.6 °F 87% 29.73 in 1.0 mi North 11.5 mph - 0.09 in Rain , Thunderstorm Heavy Thunderstorms and Rain
8:46 AM 46.4 °F 41.1 °F 44.6 °F 93% 29.72 in 3.0 mi NE 11.5 mph - 0.18 in Rain , Thunderstorm Light Thunderstorms and Rain
8:53 AM 48.0 °F - 44.1 °F 86% 29.73 in 5.0 mi North 10.4 mph - N/A Rain Light Rain
8:57 AM 48.2 °F - 44.6 °F 87% 29.74 in 9.0 mi North 9.2 mph - N/A Rain Light Rain
9:53 AM 50.0 °F - 46.0 °F 86% 29.72 in 10.0 mi ENE 3.5 mph - 0.00 in   Overcast
10:10 AM 51.8 °F - 46.4 °F 82% 29.71 in 10.0 mi NE 3.5 mph - N/A   Mostly Cloudy
10:37 AM 53.6 °F - 46.4 °F 77% 29.73 in 10.0 mi WNW 3.5 mph - N/A   Mostly Cloudy
10:53 AM 53.1 °F - 46.9 °F 80% 29.72 in 10.0 mi West 3.5 mph - N/A   Mostly Cloudy
11:02 AM 53.6 °F - 46.4 °F 77% 29.73 in 10.0 mi Variable 3.5 mph - N/A   Mostly Cloudy
11:53 AM 55.0 °F - 46.9 °F 74% 29.73 in 10.0 mi WSW 4.6 mph - N/A   Mostly Cloudy
12:53 PM 59.0 °F - 44.1 °F 58% 29.71 in 10.0 mi West 10.4 mph 20.7 mph N/A   Scattered Clouds
1:53 PM 63.0 °F - 37.9 °F 40% 29.68 in 10.0 mi West 6.9 mph - N/A   Partly Cloudy
2:53 PM 64.9 °F - 35.1 °F 33% 29.68 in 10.0 mi WNW 12.7 mph - N/A   Partly Cloudy
3:53 PM 66.9 °F - 33.1 °F 28% 29.67 in 10.0 mi NW 10.4 mph 29.9 mph N/A   Scattered Clouds
4:53 PM 69.1 °F - 21.0 °F 16% 29.70 in 10.0 mi West 13.8 mph 24.2 mph N/A   Scattered Clouds
5:53 PM 66.9 °F - 25.0 °F 21% 29.72 in 10.0 mi WNW 8.1 mph 19.6 mph N/A   Scattered Clouds
6:53 PM 64.0 °F - 30.0 °F 28% 29.77 in 10.0 mi WNW 9.2 mph - N/A   Scattered Clouds
7:53 PM 61.0 °F - 32.0 °F 34% 29.80 in 10.0 mi Calm Calm - N/A   Clear
8:53 PM 55.0 °F - 34.0 °F 45% 29.84 in 10.0 mi NW 13.8 mph 27.6 mph N/A   Clear
9:53 PM 52.0 °F - 37.0 °F 57% 29.91 in 10.0 mi NNW 13.8 mph 25.3 mph N/A   Clear
10:53 PM 50.0 °F - 37.0 °F 61% 29.94 in 10.0 mi North 11.5 mph 19.6 mph N/A   Partly Cloudy
11:53 PM 48.0 °F - 36.0 °F 63% 29.93 in 10.0 mi North 10.4 mph - N/A   Mostly Cloudy